Flag for Canada Weather past 2 weeks in Dawson Creek, British Columbia, Canada

Now
3 °F

Light snow. Overcast.


Feels Like: 3 °F
Forecast: -6 / 8 °F
Wind: No wind

Location: Dawson Creek Airport

Current Time: Jan 31, 2015 at 12:44:15 PM

Latest Report: Jan 31, 2015 at 12:00 PM


Visibility: 8 mi

Pressure: 30.67 "Hg

Humidity: 92%

Dew point: 1 °F

Location of Dawson CreekLocation

Historic Weather in Dawson Creek — Graph

°F

Dawson Creek temperature yesterday

Maximum temperature yesterday: 18 °F (at 12:00 AM)
Minimum temperature yesterday: 3 °F (at 9:00 AM)
Average temperature yesterday: 6 °F

Past Weeks' High & Low Weather Summary

 TemperatureHumidityPressure
High48 °F (Jan 25, 5:00 AM)100% (Jan 27, 12:00 AM)30.72 "Hg (Jan 27, 12:00 AM)
Low-2 °F (Jan 31, 5:00 AM)50% (Jan 25, 1:00 PM)29.52 "Hg (Jan 18, 9:00 AM)
Average30 °F74%29.99 "Hg
* Reported Jan 16 11:00 AM — Jan 31 11:00 AM, Dawson Creek, Weather by CustomWeather, © 2014

Note: Actual official high and low records may vary slightly from our data, if they occured in-between our weather recording intervals... More about our weather records

Advertising

Dawson Creek weather history for previous 24 hours

 ConditionsComfort  
Time TempWeatherWind HumidityBarometerVisibility
11:00 AM
Jan 31
3 °FLight snow. Overcast.No wind85%30.66 "Hg2 mi
10:02 AM1 °FLight snow. Mostly cloudy.No wind85%30.67 "Hg6 mi
9:00 AM1 °FLight snow. Mostly cloudy.No wind85%30.66 "Hg6 mi
8:00 AM0 °FMostly cloudy.No wind92%30.65 "Hg9 mi
7:00 AM-2 °FOvercast.2 mph84%30.66 "Hg9 mi
6:00 AM-2 °FPassing clouds.5 mph84%30.68 "Hg9 mi
5:00 AM-2 °FPassing clouds.2 mph84%30.68 "Hg9 mi
4:00 AM1 °FPassing clouds.5 mph85%30.68 "Hg9 mi
3:00 AM3 °FOvercast.3 mph85%30.69 "Hg9 mi
2:00 AM3 °FLight snow. Overcast.3 mph85%30.70 "Hg9 mi
1:00 AM5 °FLight snow. Overcast.5 mph78%30.71 "Hg9 mi
12:00 AM5 °FLight snow. Overcast.6 mph78%30.72 "Hg7 mi
11:48 PM
Jan 30
5 °FLight snow. Mostly cloudy.6 mph78%30.72 "Hg6 mi
11:00 PM5 °FLight snow. Overcast.7 mph78%30.71 "Hg6 mi
10:59 PM5 °FLight snow. Overcast.7 mph78%30.71 "Hg6 mi
10:00 PM3 °FLight snow. Overcast.6 mph85%30.71 "Hg8 mi
9:48 PM3 °FLight snow. Overcast.2 mph85%30.71 "Hg6 mi
9:00 PM3 °FLight snow. Overcast.5 mph85%30.70 "Hg4 mi
8:00 PM5 °FLight snow. Overcast.8 mph85%30.69 "Hg2 mi
7:01 PM5 °FLight snow. Overcast.8 mph85%30.68 "Hg5 mi
6:02 PM5 °FLight snow. More clouds than sun.6 mph85%30.66 "Hg2 mi
5:00 PM5 °FLight snow. Overcast.5 mph85%30.65 "Hg3 mi
4:00 PM5 °FLight snow. Overcast.6 mph85%30.63 "Hg9 mi
3:00 PM5 °FLight snow. Overcast.7 mph78%30.63 "Hg4 mi
2:59 PM5 °FLight snow. Overcast.8 mph78%30.63 "Hg4 mi
2:00 PM5 °FLight snow. Overcast.7 mph78%30.63 "Hg9 mi
1:00 PM5 °FLight snow. Overcast.8 mph78%30.62 "Hg4 mi
12:00 PM5 °FLight snow. Overcast.8 mph85%30.61 "Hg2 mi
Weather by CustomWeather, © 2014

See weather overviewHow to use our weather pages